Regional Weather Roundup
Issued by NWS Charleston, SC

Current Version | Previous Version | Graphics & Text | Print | Product List | Glossary On
Versions: 1 2 3 4 5 6 7 8 9 10 11 12 13 14 15 16 17 18 19 20 21 22 23 24 25 26 27 28 29 30 31 32 33 34 35 36 37 38 39 40 41 42 43 44 45 46 47 48 49 50
611 ASUS42 KCHS 240527 RWRCHS REGIONAL WEATHER ROUNDUP NATIONAL WEATHER SERVICE CHARLESTON SC 1200 AM EST FRI FEB 24 2017 NOTE: "FAIR" INDICATES FEW OR NO CLOUDS BELOW 12,000 FEET WITH NO SIGNIFICANT WEATHER AND/OR OBSTRUCTIONS TO VISIBILITY. NOT ALL STATIONS ARE QUALITY CONTROLLED. USE DATA WITH CAUTION... ESPECIALLY DEWPOINT OBSERVATIONS. SCZ027-030-031-034>040-042>050-240600- ...SOUTHEAST SOUTH CAROLINA... CITY SKY/WX TMP DP RH WIND PRES REMARKS N CHARLESTON CLEAR 59 57 93 N6 29.87S WATERFRONT PRK N/A 62 60 93 N7 29.86F MOUNT PLEASANT FAIR 61 59 94 N3 29.87F FOG JOHNS ISLAND FAIR 61 59 94 N6 29.87S PINOPOLIS N/A 61 59 94 VRB2 29.80S MONCKS CORNER FAIR 55 54 94 CALM 29.89S SUMMERVILLE FAIR 55 55 100 CALM 29.89F FOG BEAUFORT MCAS CLEAR 60 60 100 NE9 29.86F BEAUFORT ARPT FAIR 61 61 100 NE6 29.86S HILTON HEAD IS CLEAR 63 63 100 N6 29.86F WALTERBORO CLEAR 57 57 100 CALM 29.89S ALLENDALE FAIR 61 57 88 CALM 29.88S ...SOUTHERN MIDLANDS AND PEE DEE... CITY SKY/WX TMP DP RH WIND PRES REMARKS GEORGETOWN FAIR 52 52 100 CALM 29.90S KINGSTREE FAIR 52 50 93 CALM 29.90S ORANGEBURG CLEAR 58 55 90 NE3 29.90S BARNWELL FAIR 59 57 94 CALM 29.90S AIKEN FAIR 52 50 93 CALM 29.93F MANNING FAIR 54 34 47 MISG 29.90S COLUMBIA CLEAR 56 51 84 CALM 29.90S SUMTER CLEAR 57 53 86 CALM 29.89S FLORENCE CLEAR 57 56 96 NE3 29.91S MYRTLE BEACH CLEAR 60 57 89 N6 29.90 N MYRTLE BEACH CLEAR 57 57 100 N5 29.89S $$ GAZ063-065-086>088-099>101-113>116-118-119-134>141-150-240600- ...SOUTHEAST GEORGIA... CITY SKY/WX TMP DP RH WIND PRES REMARKS SAVANNAH ARPT CLEAR 60 58 92 N5 29.86S HUNTER AAF CLEAR 63 63 100 NE5 29.83S FORT STEWART CLEAR 60 59 94 CALM 29.84S STATESBORO CLEAR 57 32 39 CALM 29.88S SYLVANIA CLEAR N/A N/A N/A CALM 29.89S CLAXTON FAIR N/A N/A N/A CALM 29.88S ...CSRA...CENTRAL AND FAR SOUTHEAST GEORGIA... CITY SKY/WX TMP DP RH WIND PRES REMARKS THOMSON CLEAR 55 54 98 CALM 29.94S AUGUSTA-BUSH PTCLDY 56 53 90 CALM 29.89S AUGUSTA-DANIEL CLEAR 65 53 65 E5 29.90S SWAINSBORO FAIR 59 59 100 E5 29.90S VIDALIA CLEAR 63 61 94 CALM 29.88S EASTMAN N/A 56 56 100 CALM 29.90S FOG HAZLEHURST FAIR 62 62 100 E3 29.86F ALMA CLEAR 58 58 100 CALM 29.86S WAYCROSS CLEAR 61 61 100 CALM 29.85S JESUP FAIR 63 59 88 CALM 29.86R BAXLEY FAIR 57 57 100 CALM 29.87S BRUNSWICK MOCLDY 64 63 94 N6 29.85R SAINT SIMONS MOCLDY 65 61 87 N9 29.82S $$ SCZ027-028-034-036>038-045-046-048>050-GAZ119-141-240600- ...LAKE AND SUPPLEMENTAL COASTAL OBSERVATIONS... STATION/POSITION TIME TEMP WIND PRES WAVE SWELL AIR SEA DIR/SP/G HT/PER HT/PER/DIR (UTC) (F) (DEG/KT/KT) (MB) (FT/S) (FT/S/D) WINYAH BAY 0430 62 50/ 7 1012.0S LAKE MURRAY 0430 61 CALM 1012.2S ACE BASIN NERRS 0445 61 CALM 1011.0S FORT PULASKI 0500 65 62 60/ 7/ 9 1010.9 SAPELO ISLAND 0500 65 30/ 8 1010.0 $$ ANZ835-935-AMZ111-154-330-350-352-354-370-450-454-472-240600- ...C-MAN AND BUOY OBSERVATIONS... STATION/POSITION TIME TEMP WIND PRES WAVE SWELL AIR SEA DIR/SP/G HT/PER HT/PER/DIR (UTC) (F) (DEG/KT/KT) (MB) (FT/S) (FT/S/D) BUOY 41004 0450 71 70 70/ 12/ 14 1010.2F 10/11 10/140/11 BUOY 41008 0450 64 62 40/ 14/ 17 1009.3F 6/10 5/120/10 FOLLY BEACH CMAN 0500 62 20/ 7/ 8 1011.8F CAPERS NEARSHORE 0408 62 60 40/ 12/ 14 1011.4F FRIPP NEARSHORE 0508 63 61 50/ 12/ 16 1010.7F STATION/POSITION TIME TEMP WIND PRES WAVE SWELL AIR SEA DIR/SP/G HT/PER HT/PER/DIR (UTC) (F) (DEG/KT/KT) (MB) (FT/S) (FT/S/D) 5E ST. MARYS GA 0500 63 N/A 7/11 3/110/11 FRYING PAN BUOY 0510 70 71 120/ 14/ 19 1011.5 BUOY 41025 0450 69 74 140/ 17/ 23 1013.7F 5/ 7 3/ 80/11 CAPE LOOKOUT NC 0500 67 120/ 11/ 12 1012.7F BUOY 41002 0450 69 69 100/ 25/ 33 1008.4F 12/ 9 8/120/ 9 BUOY 41010 NOT AVBL ST AUGUSTINE FL 0500 66 67 360/ 15/ 16 1009.3R $$

USA.gov is the U.S. government's official web portal to all federal, state and local government web resources and services.